This demonstration page uses our WeatherBlox Daily Observations layout. Learn more.

Left ArrowRight Arrow

Hourly Observations for March 2, 2015

Temp ( °F °C ) Dew Point ( °F °C ) Humidity (%) Winds ( mph kmh ) Pressure ( in mb ) Visibility ( mi km ) Precip ( " mm )
12:51 am 00:51 Mostly Cloudy 58 14.4 34 1.1 41 41 ESE 9 15 29.88 1012 10 16 0.00 0.00
1:51 am 01:51 Mostly Clear 61 16.1 34 1.1 36 36 SE 9 15 29.85 1011 10 16 0.00 0.00
2:51 am 02:51 Clear 60 15.6 34 1.1 38 38 ESE 9 15 29.83 1010 10 16 0.00 0.00
3:51 am 03:51 Clear 58 14.4 35 1.7 42 42 VRB 6 9 29.82 1010 10 16 0.00 0.00
4:51 am 04:51 Clear 57 13.9 34 1.1 42 42 SE 10 17 29.82 1010 10 16 0.00 0.00
5:51 am 05:51 Clear 60 15.6 35 1.7 39 39 SSE 17 28 29.82 1010 10 16 0.00 0.00
6:51 am 06:51 Sunny 59 15 33 0.6 38 38 SSE 12 19 29.83 1010 10 16 0.00 0.00
7:51 am 07:51 Sunny 60 15.6 34 1.1 38 38 SSE 20 31 29.85 1011 10 16 0.00 0.00
8:51 am 08:51 Sunny 62 16.7 35 1.7 37 37 S 15 24 29.86 1011 10 16 0.00 0.00
9:51 am 09:51 Mostly Cloudy 65 18.3 40 4.4 40 40 S 21 33 29.86 1011 10 16 0.00 0.00
10:51 am 10:51 Mostly Cloudy 65 18.3 40 4.4 40 40 S 21 33 29.86 1011 10 16 0.00 0.00
11:51 am 11:51 Partly Cloudy 68 20 39 3.9 35 35 SSW 21 33 29.83 1010 10 16 0.00 0.00
12:51 pm 12:51 Sunny 67 19.4 41 5 39 39 S 22 35 29.80 1009 10 16 0.00 0.00
1:51 pm 13:51 Mostly Sunny 70 21.1 41 5 35 35 SSW 22 35 29.74 1007 10 16 0.00 0.00
2:51 pm 14:51 Partly Cloudy 67 19.4 44 6.7 44 44 S 20 31 29.75 1007 10 16 0.00 0.00
3:51 pm 15:51 Cloudy with Light Rain 66 18.9 43 6.1 43 43 SSW 17 28 29.74 1007 10 16 0.00 0.03
4:51 pm 16:51 Cloudy 65 18.3 40 4.4 40 40 SW 16 26 29.76 1008 10 16 0.00 0.03
5:32 pm 17:32 Cloudy with Light Rain 56 13.3 46 7.8 70 70 NW 24 39 29.80 1009 10 16 0.00 0.03
5:51 pm 17:51 Cloudy with Light Rain 53 11.7 44 6.7 72 72 NW 22 35 29.81 1010 10 16 0.00 0.03
6:51 pm 18:51 Cloudy with Light Rain 48 8.9 44 6.7 86 86 NW 21 33 29.88 1012 8 13 0.02 0.51
7:51 pm 19:51 Cloudy with Light Rain 48 8.9 43 6.1 83 83 NW 21 33 29.92 1013 9 14 0.01 0.25
8:51 pm 20:51 Cloudy with Light Rain 48 8.9 41 5 77 77 NW 15 24 29.94 1014 10 16 0.01 0.25
9:51 pm 21:51 Cloudy 48 8.9 40 4.4 74 74 NW 12 19 29.91 1013 10 16 0.00 0.03
10:51 pm 22:51 Cloudy with Light Rain 47 8.3 40 4.4 77 77 WNW 9 15 29.93 1013 10 16 0.00 0.03
11:51 pm 23:51 Cloudy with Light Rain 46 7.8 42 5.6 86 86 W 7 11 29.91 1013 10 16 0.00 0.03

Powered by AerisWeather